TimeEST,TemperatureF,Dew PointF,Humidity,Sea Level PressureIn,VisibilityMPH,Wind Direction,Wind SpeedMPH,Gust SpeedMPH,PrecipitationIn,Events,Conditions,WindDirDegrees,DateUTC
12:53 AM,48.0,44.1,86,30.27,10.0,NNE,8.1,-,N/A,,Mostly Cloudy,20,2012-11-17 05:53:00
1:53 AM,48.0,43.0,83,30.28,10.0,NNE,10.4,-,N/A,,Partly Cloudy,30,2012-11-17 06:53:00
2:53 AM,46.9,42.1,83,30.27,10.0,NNE,10.4,-,N/A,,Clear,20,2012-11-17 07:53:00
3:53 AM,46.0,42.1,86,30.27,10.0,NNE,8.1,-,N/A,,Clear,20,2012-11-17 08:53:00
4:53 AM,45.0,41.0,86,30.28,10.0,NNE,8.1,-,N/A,,Clear,30,2012-11-17 09:53:00
5:53 AM,44.1,39.9,85,30.29,10.0,North,8.1,-,N/A,,Clear,10,2012-11-17 10:53:00
6:53 AM,43.0,39.9,89,30.30,10.0,North,9.2,-,N/A,,Scattered Clouds,10,2012-11-17 11:53:00
7:53 AM,43.0,39.0,86,30.33,10.0,North,9.2,-,N/A,,Scattered Clouds,10,2012-11-17 12:53:00
8:53 AM,46.0,37.9,73,30.34,10.0,NNE,15.0,-,N/A,,Scattered Clouds,30,2012-11-17 13:53:00
9:53 AM,50.0,39.9,68,30.33,10.0,NNE,11.5,21.9,N/A,,Mostly Cloudy,20,2012-11-17 14:53:00
10:53 AM,55.0,41.0,59,30.34,10.0,NNE,9.2,-,N/A,,Mostly Cloudy,20,2012-11-17 15:53:00
11:53 AM,55.0,41.0,59,30.32,10.0,NNE,11.5,-,N/A,,Mostly Cloudy,20,2012-11-17 16:53:00
12:53 PM,57.9,41.0,53,30.30,10.0,NNE,12.7,-,N/A,,Mostly Cloudy,20,2012-11-17 17:53:00
1:53 PM,57.9,42.1,56,30.29,10.0,North,11.5,-,N/A,,Mostly Cloudy,10,2012-11-17 18:53:00
2:53 PM,57.9,42.1,56,30.29,10.0,North,11.5,-,N/A,,Mostly Cloudy,350,2012-11-17 19:53:00
3:53 PM,57.9,42.1,56,30.28,10.0,North,13.8,-,N/A,,Mostly Cloudy,350,2012-11-17 20:53:00
4:53 PM,55.0,42.1,62,30.30,10.0,North,8.1,-,N/A,,Mostly Cloudy,360,2012-11-17 21:53:00
5:53 PM,53.1,42.1,66,30.31,10.0,NNE,6.9,-,N/A,,Mostly Cloudy,20,2012-11-17 22:53:00
6:43 PM,53.6,42.8,67,30.32,10.0,North,6.9,-,N/A,,Overcast,10,2012-11-17 23:43:00
6:53 PM,53.1,43.0,69,30.32,10.0,North,8.1,-,N/A,,Overcast,10,2012-11-17 23:53:00
7:53 PM,53.1,44.1,71,30.33,10.0,NNE,10.4,-,N/A,,Overcast,20,2012-11-18 00:53:00
8:53 PM,53.1,45.0,74,30.32,10.0,North,8.1,-,N/A,,Overcast,10,2012-11-18 01:53:00
9:53 PM,53.1,45.0,74,30.32,10.0,North,6.9,-,N/A,,Overcast,360,2012-11-18 02:53:00
10:53 PM,53.1,45.0,74,30.32,10.0,North,9.2,-,N/A,,Overcast,10,2012-11-18 03:53:00
11:53 PM,53.1,45.0,74,30.30,10.0,North,9.2,-,N/A,,Overcast,10,2012-11-18 04:53:00